Regional Weather Roundup
Issued by NWS State College, PA

Home | Current Version | Previous Version | Graphics & Text | Print | Product List | Glossary Off
Versions: 1 2 3 4 5 6 7 8 9 10 11 12 13 14 15 16 17 18 19 20 21 22 23 24 25 26 27 28 29 30 31 32 33 34 35 36 37 38 39 40 41 42 43 44 45 46 47 48 49 50

000
ASUS41 KCTP 230410
RWRCTP

REGIONAL WEATHER ROUNDUP
NATIONAL WEATHER SERVICE STATE COLLEGE PA
1200 AM EDT THU OCT 23 2014

Note: "fair" indicates few or no clouds below 12,000 feet with no
significant weather and/or obstructions to visibility.

* = STATION THAT DOES NOT REPORT PRECIPITATION /E.G. RAIN...SNOW...ETC/
    THUNDER OR FOG.

PAZ002>004-007>009-013>016-020>023-029>032-230500-
WESTERN PENNSYLVANIA

CITY           SKY/WX    TMP DP  RH WIND       PRES   REMARKS
ERIE           CLOUDY    47  43  86 CALM      30.20F
MEADVILLE      CLOUDY    45  40  82 N3        30.18F
FRANKLIN*      CLOUDY    43  37  81 N5        30.17F
NEW CASTLE       N/A     45  41  86 CALM      30.20F
BEAVER COUNTY  NOT AVBL
BUTLER*        CLOUDY    45  37  76 CALM      30.17F
PITTSBURGH INT CLOUDY    45  40  82 N8        30.17F
PITTSBURGH     CLOUDY    47  38  71 N9G18     30.15F
INDIANA*       CLOUDY    46  41  81 VRB7G14   30.15F
LATROBE        NOT AVBL
WASHINGTON CO* PTCLDY    45  37  76 NW5       30.18F
$$

PAZ004>006-010>012-017>019-024>028-033>037-041-042-045-046-049>053-230500-
CENTRAL PENNSYLVANIA

CITY           SKY/WX    TMP DP  RH WIND       PRES   REMARKS
BRADFORD       CLOUDY    42  39  89 N9        30.10F
DUBOIS         CLOUDY    43  40  89 N9        30.09F
CLEARFIELD     CLOUDY    45  40  82 N10       30.08F
JOHNSTOWN      CLOUDY    42  38  85 NW16      30.07F
ALTOONA        CLOUDY    46  40  79 N14       30.05F
STATE COLLEGE  CLOUDY    47  41  80 N8G21     30.04S
WILLIAMSPORT   CLOUDY    51  42  71 NW12      29.97F
SELINSGROVE    CLOUDY    51  43  74 N7        29.96F
FT INDIANTOWN  CLOUDY    51  48  87 NW15G24   29.90F
CAPITAL CITY   CLOUDY    53  43  68 NW10G23   29.93F
HARRISBURG     MOCLDY    52  42  69 NW20G29   29.92F
YORK           CLOUDY    51  43  74 NW13G23   29.92F
$$

PAZ038>040-043-044-047-048-054-055-060>062-067>071-230500-
EASTERN PENNSYLVANIA

CITY           SKY/WX    TMP DP  RH WIND       PRES   REMARKS
SCRANTON       CLOUDY    49  43  80 N10G22    29.91F
MOUNT POCONO   LGT RAIN  46  42  86 N21G31    29.84F
ALLENTOWN      CLOUDY    53  44  71 N16G28    29.83F
QUAKERTOWN*    CLOUDY    50  46  87 N9G20     29.82F
READING        CLOUDY    53  44  71 N17G28    29.86F
LANCASTER      MOCLDY    51  43  74 NW17      29.88F
COATESVILLE    MOCLDY    50  45  81 N14G21    29.84F
POTTSTOWN      CLOUDY    52  45  77 N14G32    29.83F
BLUE BELL      CLOUDY    52  50  93 NW6       29.80S
DOYLESTOWN     LGT RAIN  50  48  93 N14G22    29.78F
WILLOW GROVE   NOT AVBL
NORTH PHILA    RAIN      53  48  83 NW14      29.79F
PHILADELPHIA   RAIN      53  47  79 NW17      29.79F
$$



USA.gov is the U.S. government's official web portal to all federal, state and local government web resources and services.